N1ADJ Weather Reports


Display with metric or nautical units.
time (UTC)temp
F
wind
direction
speed
MPH
gust
MPH
rain 1hr
in
rain 24hr
in
rain mn
in
humidity
%
barometer
mb
20260505002017 52 0.0 0.0 0.00 0.00 0.00 76 1006.1
20260505001522 53 135 1.0 3.0 0.00 0.00 0.00 75 1006.1
20260505001041 53 0.0 3.0 0.00 0.00 0.00 74 1006.0
20260505000518 53 0.0 1.0 0.00 0.00 0.00 73 1005.9
20260505000017 54 0.0 0.0 0.00 0.00 0.00 72 1006.1
20260504235518 54 0.0 0.0 0.00 0.00 0.00 71 1006.1
20260504235019 55 0.0 3.0 0.00 0.00 0.00 70 1006.0
20260504234519 56 0.0 3.0 0.00 0.00 0.00 70 1005.9
20260504234017 56 0.0 2.0 0.00 0.00 0.00 69 1005.8
20260504233517 57 0.0 2.0 0.00 0.00 0.00 67 1005.7
20260504233037 57 0.0 0.0 0.00 0.00 0.00 67 1005.6
20260504232517 58 0.0 3.0 0.00 0.00 0.00 66 1005.4
20260504232022 58 0.0 0.0 0.00 0.00 0.00 65 1005.2
20260504231608 59 135 1.0 7.0 0.00 0.00 0.00 65 1005.1
20260504231017 59 135 1.0 4.0 0.00 0.00 0.00 65 1005.0
20260504230517 59 0.0 2.0 0.00 0.00 0.00 65 1004.9
20260504230018 59 113 1.0 3.0 0.00 0.00 0.00 65 1005.0
20260504225518 60 113 3.0 7.0 0.00 0.00 0.00 63 1004.9
20260504225017 60 135 3.0 7.0 0.00 0.00 0.00 62 1004.8
20260504224517 61 135 1.0 4.0 0.00 0.00 0.00 62 1004.7
20260504224017 61 135 1.0 4.0 0.00 0.00 0.00 61 1004.8
20260504223537 61 113 2.0 6.0 0.00 0.00 0.00 61 1004.8
20260504223019 62 135 1.0 4.0 0.00 0.00 0.00 61 1004.8
20260504222518 62 90 2.0 8.0 0.00 0.00 0.00 61 1004.7
20260504222017 63 135 2.0 7.0 0.00 0.00 0.00 60 1004.9
20260504221520 63 113 4.0 7.0 0.00 0.00 0.00 58 1004.6
20260504221037 64 90 1.0 6.0 0.00 0.00 0.00 59 1004.8
20260504220518 64 113 1.0 6.0 0.00 0.00 0.00 59 1004.7
20260504220017 64 135 1.0 4.0 0.00 0.00 0.00 58 1004.6
20260504215519 65 0.0 3.0 0.00 0.00 0.00 57 1004.7
20260504215017 66 0.0 3.0 0.00 0.00 0.00 57 1004.8
20260504214519 66 158 1.0 4.0 0.00 0.00 0.00 54 1004.6
20260504214017 67 135 1.0 6.0 0.00 0.00 0.00 54 1004.8
20260504213517 68 203 2.0 7.0 0.00 0.00 0.00 52 1004.6
20260504213018 69 203 2.0 6.0 0.00 0.00 0.00 51 1004.6
20260504212537 69 158 2.0 9.0 0.00 0.00 0.00 48 1004.4
20260504212017 70 225 6.0 12.0 0.00 0.00 0.00 47 1004.7
20260504211522 70 248 6.0 13.0 0.00 0.00 0.00 44 1004.5
20260504211018 70 270 8.0 15.0 0.00 0.00 0.00 44 1004.3
20260504210518 69 270 9.0 15.0 0.00 0.00 0.00 41 1004.3
20260504210038 69 270 9.0 15.0 0.00 0.00 0.00 44 1004.4
20260504205518 70 270 10.0 17.0 0.00 0.00 0.00 41 1004.4
20260504205018 70 248 10.0 16.0 0.00 0.00 0.00 44 1004.4
20260504204537 70 270 10.0 17.0 0.00 0.00 0.00 44 1004.3
20260504204018 70 270 8.0 15.0 0.00 0.00 0.00 43 1004.3
20260504203518 70 270 9.0 20.0 0.00 0.00 0.00 43 1004.3
20260504203017 70 270 6.0 15.0 0.00 0.00 0.00 44 1004.4
20260504202517 69 248 10.0 17.0 0.00 0.00 0.00 48 1004.6
20260504202017 68 270 12.0 21.0 0.00 0.00 0.00 45 1004.7
20260504201537 69 270 9.0 21.0 0.00 0.00 0.00 44 1004.6
20260504201018 67 270 5.0 13.0 0.00 0.00 0.00 49 1004.6
20260504200518 67 225 2.0 7.0 0.00 0.00 0.00 52 1004.8
20260504200037 66 315 2.0 4.0 0.00 0.00 0.00 54 1004.9
20260504195622 66 0.0 3.0 0.00 0.00 0.00 59 1004.9
20260504195017 66 90 2.0 8.0 0.00 0.00 0.00 60 1004.5
20260504194542 66 113 2.0 7.0 0.00 0.00 0.00 61 1004.8
20260504194018 65 135 2.0 6.0 0.00 0.00 0.00 60 1005.0
20260504193518 65 113 3.0 8.0 0.00 0.00 0.00 63 1004.8
20260504193022 65 113 2.0 7.0 0.00 0.00 0.00 60 1005.0
20260504192517 64 135 2.0 7.0 0.00 0.00 0.00 61 1005.0
20260504192017 64 113 3.0 8.0 0.00 0.00 0.00 62 1004.9
20260504191517 63 90 4.0 8.0 0.00 0.00 0.00 64 1004.8
20260504191103 63 113 3.0 6.0 0.00 0.00 0.00 65 1005.0
20260504190519 61 68 3.0 5.0 0.00 0.00 0.00 65 1004.9
20260504190018 60 113 1.0 5.0 0.00 0.00 0.00 71 1005.3
20260504185521 59 113 1.0 3.0 0.00 0.00 0.00 70 1005.2
20260504185017 59 113 1.0 3.0 0.00 0.00 0.00 69 1005.3
20260504184518 59 113 1.0 3.0 0.00 0.00 0.00 69 1005.3
20260504184017 59 0.0 3.0 0.00 0.00 0.00 68 1005.2
20260504183540 59 135 2.0 4.0 0.00 0.00 0.00 68 1005.3
20260504183017 59 135 3.0 5.0 0.00 0.00 0.00 67 1005.3
20260504182539 59 135 2.0 6.0 0.00 0.00 0.00 66 1005.3
20260504182017 59 135 2.0 4.0 0.00 0.00 0.00 66 1005.3
20260504181517 59 135 3.0 5.0 0.00 0.00 0.00 66 1005.4
20260504181017 59 113 1.0 4.0 0.00 0.00 0.00 67 1005.4
20260504180516 59 113 1.0 4.0 0.00 0.00 0.00 67 1005.4
20260504180107 58 113 2.0 4.0 0.00 0.00 0.00 68 1005.3
20260504175547 58 0.0 2.0 0.00 0.00 0.00 68 1005.3
20260504175017 59 0.0 3.0 0.00 0.00 0.00 67 1005.4
20260504174517 59 203 1.0 6.0 0.00 0.00 0.00 66 1005.3
20260504174017 59 225 1.0 3.0 0.00 0.00 0.00 62 1005.4
20260504173516 60 270 2.0 7.0 0.00 0.00 0.00 63 1005.3
20260504173017 61 225 2.0 8.0 0.00 0.00 0.00 60 1005.2
20260504172517 62 203 4.0 11.0 0.00 0.00 0.00 58 1005.0
20260504172016 62 225 4.0 10.0 0.00 0.00 0.00 58 1004.7
20260504171518 63 225 4.0 8.0 0.00 0.00 0.00 60 1004.8
20260504171017 63 203 2.0 7.0 0.00 0.00 0.00 60 1004.8
20260504170522 63 180 3.0 10.0 0.00 0.00 0.00 54 1004.7
20260504151017 59 225 6.0 12.0 0.00 0.00 0.00 63 1006.3
20260504150517 59 225 7.0 12.0 0.00 0.00 0.00 61 1006.4
20260504141016 56 203 4.0 9.0 0.00 0.00 0.00 66 1007.3
20260504140538 55 225 6.0 12.0 0.00 0.01 0.00 66 1007.3
20260504130523 53 203 8.0 16.0 0.00 0.03 0.00 69 1007.8
20260504110518 44 225 1.0 5.0 0.00 0.04 0.00 71 1008.1
20260504100518 41 248 1.0 3.0 0.00 0.04 0.00 76 1007.8
20260504081520 38 248 1.0 4.0 0.00 0.04 0.00 79 1007.6
20260504081023 38 0.0 2.0 0.00 0.04 0.00 79 1007.6
20260504080518 38 0.0 3.0 0.00 0.04 0.00 79 1007.6
20260504050519 35 0.0 0.0 0.00 0.04 0.00 84 1007.4
20260504045522 35 0.0 0.0 0.00 0.04 0.00 84 1007.3
20260504045017 35 0.0 0.0 0.00 0.04 0.00 84 1007.4
20260504044518 35 0.0 0.0 0.00 0.04 0.00 83 1007.3
20260504044017 36 0.0 0.0 0.00 0.04 0.00 83 1007.4
20260504043518 36 0.0 0.0 0.00 0.04 0.00 82 1007.3
20260504043017 36 0.0 0.0 0.00 0.04 0.00 82 1007.5
20260504042519 36 0.0 0.0 0.00 0.04 0.00 81 1007.4
20260504042019 36 0.0 0.0 0.00 0.04 0.00 81 1007.3
20260504041520 37 0.0 0.0 0.00 0.04 0.00 81 1007.6
20260504041019 37 0.0 0.0 0.00 0.04 0.00 81 1007.3
20260504040542 37 0.0 0.0 0.00 0.04 0.00 80 1007.5
20260504040058 37 0.0 0.0 0.00 0.04 0.04 79 1007.4
20260504035519 38 180 1.0 3.0 0.00 0.04 0.04 78 1007.5
20260504035018 38 0.0 3.0 0.00 0.04 0.04 78 1007.4
20260504034520 38 0.0 2.0 0.00 0.04 0.04 78 1007.3
20260504034039 39 0.0 0.0 0.00 0.04 0.04 77 1007.3
20260504033518 39 0.0 0.0 0.00 0.04 0.04 76 1007.2
20260504033017 39 0.0 0.0 0.00 0.04 0.04 75 1007.2
20260504032517 40 0.0 0.0 0.00 0.04 0.04 74 1007.0
20260504032038 40 0.0 0.0 0.00 0.04 0.04 73 1007.1
20260504031518 41 0.0 0.0 0.00 0.04 0.04 72 1007.1
20260504031018 41 0.0 0.0 0.00 0.04 0.04 71 1007.1
20260504030518 42 0.0 0.0 0.00 0.04 0.04 70 1007.2
20260504030029 42 0.0 0.0 0.00 0.04 0.04 69 1007.0
20260504025519 43 0.0 0.0 0.00 0.04 0.04 68 1007.0
20260504025020 43 270 1.0 4.0 0.00 0.04 0.04 66 1007.1
20260504024517 43 270 2.0 4.0 0.00 0.04 0.04 66 1007.2
20260504024017 43 270 3.0 6.0 0.00 0.04 0.04 68 1007.1
20260504023518 43 270 3.0 6.0 0.00 0.04 0.04 70 1007.2
20260504023037 44 248 2.0 4.0 0.00 0.04 0.04 67 1007.3
20260504022517 44 0.0 3.0 0.00 0.04 0.04 65 1007.3
20260504022017 45 270 2.0 4.0 0.00 0.04 0.04 64 1007.2
20260504021517 45 270 2.0 4.0 0.00 0.04 0.04 64 1007.2
20260504021017 45 270 3.0 6.0 0.00 0.04 0.04 64 1007.1
20260504020518 45 270 3.0 7.0 0.00 0.04 0.04 63 1007.1
20260504020018 45 270 3.0 6.0 0.00 0.04 0.04 61 1007.1
20260504015537 46 270 3.0 7.0 0.00 0.04 0.04 60 1007.1
20260504015039 46 270 3.0 6.0 0.00 0.04 0.04 58 1007.1
20260504014518 46 270 2.0 6.0 0.00 0.04 0.04 58 1007.0
20260504014019 46 270 3.0 8.0 0.00 0.04 0.04 57 1007.0
20260504013538 47 270 3.0 7.0 0.00 0.04 0.04 57 1007.0
20260504013019 47 270 4.0 8.0 0.00 0.04 0.04 57 1006.9
20260504012518 47 270 2.0 9.0 0.00 0.04 0.04 57 1006.9
20260504012018 47 293 4.0 10.0 0.00 0.04 0.04 56 1006.8
20260504011537 47 293 4.0 11.0 0.00 0.04 0.04 56 1006.7
20260504011017 47 270 5.0 11.0 0.00 0.04 0.04 56 1006.7
20260504010518 47 270 4.0 11.0 0.00 0.04 0.04 56 1006.5
20260504010017 47 270 3.0 7.0 0.00 0.04 0.04 56 1006.5
20260504005537 47 270 4.0 9.0 0.00 0.04 0.04 55 1006.3
20260504005037 48 270 4.0 11.0 0.00 0.04 0.04 54 1006.4
20260504004518 48 270 4.0 11.0 0.00 0.04 0.04 54 1006.2
20260504004017 48 270 4.0 9.0 0.00 0.04 0.04 54 1006.2
20260504003517 48 270 6.0 12.0 0.00 0.04 0.04 53 1006.0
20260504003017 48 270 5.0 10.0 0.00 0.04 0.04 53 1005.9
20260504002538 48 270 4.0 9.0 0.00 0.04 0.04 52 1005.8